Content
SEND FEEDBACK

Daily
Averages
Monthly
Summary
Canada

VANCOUVER - CITY HALL, BRITISH COLUMBIA


Home > North America > Canada > British Columbia
Elevation: 283 feet     Latitude: 49 17N     Longitude: 123 07W

WEATHER
 
SELECT A DAY
Number of Records: 170,370;   Date Range: 4/23/95 - 9/19/14
 
SHARE

PRINT THIS DATA

[ ← Previous Day ]
WEATHER ALMANAC - FEBRUARY 13, 2013
[ Next Day → ]
[ °C ]   °F
Weather ElementAverageHighLow
Temperature42 °F46.8 °F (3:00 pm)38.8 °F (7:00 am)
Dewpoint37.7 °F40.5 °F (12:00 pm)34.2 °F (7:00 pm)
Humidity83.7 %91 % (1:00 am)73 % (4:00 pm)
Barometer30.37 in30.46 in (11:00 pm)30.24 in (1:00 am)
Wind Speed1.6 mph3.5 mph (2:00 am)
Weather ElementAverage
Wind DirectionSSE (143 °)

Weather ElementTotal
Precipitation---
Heating Degree Days22.2 (Base 65)
Averaged from 27 records on February 13, 2013
WEATHER CONDITIONS BREAKOUT
WIND DIRECTION BREAKOUT
WEATHER BY HOUR - FEBRUARY 13, 2013
[ °C ]   °F
Local TimeTemperatureDewpointHumidityBarometerVisibilityWind DirectionWind SpeedGust SpeedPrecipitationEventsConditions
1:00 AM41.5 °F39.0 °F91 %30.24 inNNE (20°)2.3 mph
2:00 AM41.2 °F38.5 °F90 %30.25 inNorth (10°)3.5 mph
3:00 AM41.2 °F37.4 °F86 %30.27 inNorth (350°)1.2 mph
4:00 AM41.0 °F37.0 °F79 %30.28 inNW (320°)1.2 mph
4:00 AM41.2 °F36.7 °F84 %30.28 inNW (320°)1.2 mph
5:00 AM39.9 °F37.0 °F89 %30.29 inNorth (10°)1.2 mph
6:00 AM39.7 °F36.9 °F89 %30.30 inNE (50°)1.2 mph
7:00 AM38.8 °F36.5 °F91 %30.32 inNNE (20°)2.3 mph
8:00 AM40.3 °F37.2 °F89 %30.34 inNorth (10°)1.2 mph
9:00 AM42.1 °F38.8 °F88 %30.36 inCalm
10:00 AM44.0 °F40.0 °F79 %30.38 inSouth (180°)1.2 mph
10:00 AM43.7 °F39.7 °F86 %30.38 inSouth (180°)1.2 mph
11:00 AM45.1 °F39.6 °F81 %30.39 inSSW (200°)1.2 mph
12:00 PM44.8 °F40.5 °F85 %30.40 inSSW (210°)1.2 mph
1:00 PM44.4 °F39.9 °F84 %30.40 inSouth (180°)1.2 mph
2:00 PM45.7 °F40.5 °F82 %30.39 inSW (230°)1.2 mph
3:00 PM46.8 °F39.9 °F77 %30.39 inWNW (290°)1.2 mph
4:00 PM44.0 °F38.0 °F73 %30.41 inWSW (250°)1.2 mph
4:00 PM43.5 °F38.3 °F82 %30.41 inWSW (250°)1.2 mph
5:00 PM42.6 °F38.8 °F86 %30.41 inNW (320°)1.2 mph
6:00 PM40.1 °F34.7 °F81 %30.41 inNNE (20°)2.3 mph
7:00 PM39.4 °F34.2 °F82 %30.43 inNorth (10°)3.5 mph
8:00 PM39.9 °F35.1 °F83 %30.44 inNNE (20°)2.3 mph
9:00 PM40.8 °F35.2 °F80 %30.44 inNorth (360°)3.5 mph
10:00 PM41.0 °F36.0 °F77 %30.45 inNorth (10°)1.2 mph
10:00 PM40.8 °F36.1 °F83 %30.45 inNorth (10°)1.2 mph
11:00 PM40.8 °F36.1 °F83 %30.46 inNNE (30°)2.3 mph
Hourly data recorded from CWWA, located miles away from Vancouver - City Hall, British Columbia







STORIES FROM OUR PARTNERS